Powrót do katalogu

QIANFAN-200

AktywnyŁącznośćPO
NORAD 69418·PAYLOAD·🇨🇳 China

Wystrzelony Jun 5, 2026 z Wenchang Space Launch Site

Loading…

Następne Przeloty (najbliższe 24 godziny)

TLE

ŚwieżeSource: Space-Track

Epoka: Sep 14, 2026, 20:42 UTC

1 69418U 26125T   26257.86319124  .00000007  00000-0 -74528-5 0  9999
2 69418  88.9884 270.8939 0001956 106.0320 254.1046 13.51026168 14051

Śledź QIANFAN-200 w czasie rzeczywistym z AllMySat

Download on the App Store